Meteo orario Koziolki

Oggi, 8 Marzo, Lunedi

Tempo Temperatura Precipitazioni Vento Pressione Umidità
00:00 -3°C° 0.2 mm 4 m/s 746 mm Hg 86%
01:00 -3°C° 0 mm 4 m/s 746 mm Hg 86%
02:00 -4°C° 0 mm 3 m/s 746 mm Hg 87%
03:00 -4°C° 0 mm 3 m/s 746 mm Hg 88%
04:00 -5°C° 0 mm 3 m/s 746 mm Hg 89%
05:00 -5°C° 0 mm 3 m/s 746 mm Hg 85%
06:00 -5°C° 0 mm 3 m/s 747 mm Hg 81%
07:00 -4°C° 0 mm 2 m/s 747 mm Hg 76%
08:00 -4°C° 0 mm 3 m/s 748 mm Hg 70%
09:00 -2°C° 0 mm 4 m/s 748 mm Hg 63%
10:00 -1°C° 0 mm 4 m/s 749 mm Hg 56%
11:00 -1°C° 0 mm 4 m/s 749 mm Hg 54%
12:00 0°C° 0 mm 4 m/s 749 mm Hg 52%
13:00 0°C° 0 mm 4 m/s 749 mm Hg 51%
14:00 0°C° 0.1 mm 4 m/s 749 mm Hg 52%
15:00 0°C° 0.1 mm 4 m/s 749 mm Hg 53%
16:00 0°C° 0.1 mm 4 m/s 749 mm Hg 55%
17:00 -1°C° 0 mm 3 m/s 750 mm Hg 60%
18:00 -2°C° 0 mm 3 m/s 750 mm Hg 66%
19:00 -3°C° 0 mm 2 m/s 750 mm Hg 72%
20:00 -3°C° 0 mm 2 m/s 750 mm Hg 75%
21:00 -3°C° 0 mm 2 m/s 751 mm Hg 77%
22:00 -4°C° 0 mm 2 m/s 751 mm Hg 80%
23:00 -4°C° 0 mm 2 m/s 751 mm Hg 80%

Domani, 9 Marzo, Martedi

Tempo Temperatura Precipitazioni Vento Pressione Umidità
00:00 -4°C° 0 mm 2 m/s 751 mm Hg 80%
01:00 -2°C° 0 mm 1 m/s 751 mm Hg 81%
02:00 -2°C° 0 mm 1 m/s 751 mm Hg 80%
03:00 -2°C° 0 mm 1 m/s 751 mm Hg 80%
04:00 -2°C° 0 mm 1 m/s 751 mm Hg 79%
05:00 -2°C° 0 mm 1 m/s 751 mm Hg 77%
06:00 -2°C° 0 mm 1 m/s 751 mm Hg 75%
07:00 -2°C° 0 mm 1 m/s 751 mm Hg 73%
08:00 -1°C° 0 mm 1 m/s 751 mm Hg 66%
09:00 0°C° 0 mm 1 m/s 751 mm Hg 59%
10:00 0°C° 0 mm 1 m/s 752 mm Hg 53%
11:00 +1°C° 0 mm 1 m/s 751 mm Hg 49%
12:00 +1°C° 0 mm 2 m/s 751 mm Hg 46%
13:00 +1°C° 0 mm 2 m/s 751 mm Hg 42%
14:00 +1°C° 0 mm 2 m/s 751 mm Hg 43%
15:00 +1°C° 0 mm 2 m/s 751 mm Hg 44%
16:00 +1°C° 0 mm 2 m/s 750 mm Hg 44%
17:00 -1°C° 0 mm 2 m/s 750 mm Hg 49%
18:00 -2°C° 0 mm 2 m/s 750 mm Hg 54%
19:00 -3°C° 0 mm 2 m/s 751 mm Hg 59%
20:00 -4°C° 0 mm 2 m/s 751 mm Hg 59%
21:00 -4°C° 0 mm 2 m/s 751 mm Hg 59%
22:00 -4°C° 0 mm 2 m/s 751 mm Hg 59%
23:00 -4°C° 0 mm 2 m/s 751 mm Hg 60%

Dopodomani, 10 Marzo, Mercoledi

Tempo Temperatura Precipitazioni Vento Pressione Umidità
00:00 -4°C° 0 mm 2 m/s 751 mm Hg 61%
01:00 -4°C° 0 mm 2 m/s 751 mm Hg 61%
02:00 -2°C° 0 mm 1 m/s 751 mm Hg 61%
03:00 -2°C° 0 mm 1 m/s 750 mm Hg 62%
04:00 -2°C° 0 mm 1 m/s 750 mm Hg 62%
05:00 -2°C° 0 mm 1 m/s 751 mm Hg 61%
06:00 -2°C° 0 mm 1 m/s 751 mm Hg 60%
07:00 -1°C° 0 mm 1 m/s 751 mm Hg 59%
08:00 0°C° 0 mm 1 m/s 751 mm Hg 54%
09:00 +1°C° 0 mm 1 m/s 751 mm Hg 49%
10:00 +2°C° 0 mm 1 m/s 751 mm Hg 43%
11:00 +2°C° 0 mm 1 m/s 751 mm Hg 41%
12:00 +3°C° 0 mm 1 m/s 751 mm Hg 39%
13:00 +2°C° 0 mm 0 m/s 751 mm Hg 37%
14:00 +2°C° 0 mm 0 m/s 751 mm Hg 38%
15:00 +2°C° 0 mm 0 m/s 751 mm Hg 38%
16:00 +2°C° 0 mm 0 m/s 751 mm Hg 39%
17:00 +2°C° 0 mm 1 m/s 751 mm Hg 45%
18:00 +1°C° 0 mm 1 m/s 751 mm Hg 50%
19:00 -3°C° 0 mm 2 m/s 751 mm Hg 56%
20:00 -3°C° 0 mm 2 m/s 752 mm Hg 57%
21:00 -3°C° 0 mm 2 m/s 752 mm Hg 58%
22:00 -3°C° 0 mm 2 m/s 752 mm Hg 59%
23:00 -3°C° 0 mm 2 m/s 752 mm Hg 59%

11 Marzo, Giovedi

Tempo Temperatura Precipitazioni Vento Pressione Umidità
00:00 -3°C° 0 mm 2 m/s 752 mm Hg 60%
01:00 -3°C° 0 mm 2 m/s 752 mm Hg 60%
02:00 -3°C° 0 mm 2 m/s 751 mm Hg 59%
03:00 -4°C° 0 mm 2 m/s 751 mm Hg 59%
04:00 -5°C° 0 mm 3 m/s 750 mm Hg 59%
05:00 -4°C° 0 mm 3 m/s 750 mm Hg 58%
06:00 -4°C° 0 mm 3 m/s 750 mm Hg 57%
07:00 -4°C° 0 mm 3 m/s 750 mm Hg 56%
08:00 -2°C° 0 mm 4 m/s 750 mm Hg 51%
09:00 -1°C° 0 mm 5 m/s 749 mm Hg 46%
10:00 -1°C° 0 mm 6 m/s 749 mm Hg 40%
11:00 +1°C° 0 mm 6 m/s 748 mm Hg 40%
12:00 +1°C° 0 mm 6 m/s 748 mm Hg 39%
13:00 +2°C° 0 mm 7 m/s 747 mm Hg 39%
14:00 +2°C° 0 mm 6 m/s 746 mm Hg 42%
15:00 +2°C° 0 mm 6 m/s 745 mm Hg 46%
16:00 +1°C° 0 mm 6 m/s 744 mm Hg 49%
17:00 +1°C° 0.1 mm 6 m/s 744 mm Hg 57%
18:00 -1°C° 0.1 mm 6 m/s 743 mm Hg 64%
19:00 -1°C° 0.1 mm 6 m/s 743 mm Hg 71%
20:00 -1°C° 1 mm 7 m/s 742 mm Hg 79%
21:00 -1°C° 1 mm 7 m/s 742 mm Hg 86%
22:00 -1°C° 1 mm 7 m/s 741 mm Hg 94%
23:00 -1°C° 1 mm 7 m/s 740 mm Hg 94%

12 Marzo, Venerdi

Tempo Temperatura Precipitazioni Vento Pressione Umidità
00:00 +1°C° 1 mm 6 m/s 740 mm Hg 94%
01:00 +2°C° 1 mm 6 m/s 739 mm Hg 94%
02:00 +2°C° 0.4 mm 6 m/s 739 mm Hg 93%
03:00 +2°C° 0.4 mm 6 m/s 739 mm Hg 92%
04:00 +3°C° 0.4 mm 6 m/s 739 mm Hg 91%
05:00 +3°C° 0.1 mm 6 m/s 739 mm Hg 90%
06:00 +3°C° 0.1 mm 6 m/s 740 mm Hg 90%
07:00 +3°C° 0.1 mm 6 m/s 740 mm Hg 89%
08:00 +3°C° 0 mm 7 m/s 741 mm Hg 83%
09:00 +4°C° 0 mm 7 m/s 741 mm Hg 77%
10:00 +4°C° 0 mm 8 m/s 742 mm Hg 71%
11:00 +4°C° 0.1 mm 8 m/s 742 mm Hg 69%
12:00 +5°C° 0.1 mm 8 m/s 743 mm Hg 67%
13:00 +5°C° 0.1 mm 8 m/s 743 mm Hg 65%
14:00 +5°C° 0 mm 7 m/s 743 mm Hg 64%
15:00 +5°C° 0 mm 6 m/s 743 mm Hg 62%
16:00 +6°C° 0 mm 5 m/s 743 mm Hg 61%
17:00 +5°C° 0 mm 5 m/s 744 mm Hg 65%
18:00 +4°C° 0 mm 4 m/s 744 mm Hg 69%
19:00 +3°C° 0 mm 3 m/s 744 mm Hg 73%
20:00 +3°C° 0 mm 3 m/s 744 mm Hg 75%
21:00 +2°C° 0 mm 3 m/s 744 mm Hg 76%
22:00 +2°C° 0 mm 3 m/s 744 mm Hg 78%
23:00 +1°C° 0 mm 4 m/s 744 mm Hg 78%

13 Marzo, Sabato

Tempo Temperatura Precipitazioni Vento Pressione Umidità
00:00 +1°C° 0 mm 4 m/s 744 mm Hg 79%
01:00 +1°C° 0 mm 4 m/s 743 mm Hg 79%
02:00 +1°C° 0 mm 5 m/s 743 mm Hg 80%
03:00 0°C° 0 mm 5 m/s 743 mm Hg 80%
04:00 0°C° 0 mm 5 m/s 742 mm Hg 81%
05:00 +1°C° 0 mm 5 m/s 742 mm Hg 81%
06:00 +1°C° 0 mm 5 m/s 742 mm Hg 81%
07:00 +1°C° 0 mm 6 m/s 742 mm Hg 81%
08:00 +1°C° 0.4 mm 5 m/s 742 mm Hg 85%
09:00 +1°C° 0.4 mm 5 m/s 742 mm Hg 90%
10:00 +1°C° 0.4 mm 5 m/s 742 mm Hg 95%
11:00 +2°C° 0.3 mm 5 m/s 743 mm Hg 91%
12:00 +3°C° 0.3 mm 5 m/s 743 mm Hg 86%
13:00 +3°C° 0.3 mm 5 m/s 743 mm Hg 82%
14:00 +5°C° 0.1 mm 5 m/s 743 mm Hg 77%
15:00 +5°C° 0.1 mm 5 m/s 742 mm Hg 73%
16:00 +5°C° 0.1 mm 5 m/s 742 mm Hg 68%
17:00 +4°C° 0 mm 4 m/s 742 mm Hg 72%
18:00 +3°C° 0 mm 4 m/s 742 mm Hg 76%
19:00 +2°C° 0 mm 3 m/s 742 mm Hg 79%
20:00 +3°C° 0 mm 4 m/s 742 mm Hg 79%
21:00 +2°C° 0 mm 5 m/s 741 mm Hg 78%
22:00 +2°C° 0 mm 5 m/s 741 mm Hg 77%
23:00 +2°C° 0 mm 5 m/s 741 mm Hg 80%
Mostrare altro